ACA226 CYVR-CYYC

Flight info

Callsign ACA226
Flight time N/A
Altitude 41000
Route DAPED DCT PETLI DCT MENBO Q983 NORET IGVEP7
Aircraft A333/H-SDE3GHIJ2J3J5M1RVWXY/LB2D1

Departure

Time 2026-05-03 22:07
Airport Vancouver International Airport (CYVR)

Arrival

Time N/A
Airport Calgary International Airport (CYYC)
Time Latitude Longitude Altitude Speed Heading
2026-05-03 21:46 49.19547 -123.18132 13 ft 0 kts 176°
2026-05-03 21:55 49.19560 -123.18133 14 ft 4 kts 179°
2026-05-03 21:55 49.19587 -123.18131 14 ft 4 kts 188°
2026-05-03 21:55 49.19613 -123.18122 14 ft 4 kts 202°
2026-05-03 21:55 49.19635 -123.18102 16 ft 4 kts 233°
2026-05-03 21:56 49.19641 -123.18087 13 ft 0 kts 252°
2026-05-03 21:58 49.19637 -123.18107 16 ft 3 kts 253°
2026-05-03 21:59 49.19645 -123.18168 14 ft 12 kts 295°
2026-05-03 21:59 49.19683 -123.18293 13 ft 14 kts 288°
2026-05-03 21:59 49.19701 -123.18441 13 ft 15 kts 278°
2026-05-03 21:59 49.19719 -123.18600 13 ft 15 kts 267°
2026-05-03 22:00 49.19643 -123.18691 13 ft 15 kts 193°
2026-05-03 22:00 49.19536 -123.18716 13 ft 14 kts 189°
2026-05-03 22:00 49.19485 -123.18729 13 ft 1 kts 189°
2026-05-03 22:00 49.19468 -123.18733 14 ft 4 kts 189°
2026-05-03 22:01 49.19437 -123.18735 13 ft 0 kts 167°
2026-05-03 22:01 49.19436 -123.18734 13 ft 1 kts 166°
2026-05-03 22:02 49.19416 -123.18717 13 ft 8 kts 151°
2026-05-03 22:02 49.19352 -123.18699 13 ft 15 kts 182°
2026-05-03 22:02 49.19228 -123.18724 13 ft 19 kts 179°
2026-05-03 22:02 49.19110 -123.18625 13 ft 21 kts 141°
2026-05-03 22:03 49.18992 -123.18483 13 ft 23 kts 141°
2026-05-03 22:03 49.18937 -123.18269 13 ft 23 kts 98°
2026-05-03 22:03 49.18907 -123.18028 13 ft 24 kts 99°
2026-05-03 22:03 49.18878 -123.17768 13 ft 26 kts 100°
2026-05-03 22:04 49.18846 -123.17489 13 ft 27 kts 100°
2026-05-03 22:04 49.18814 -123.17195 13 ft 29 kts 99°
2026-05-03 22:04 49.18784 -123.16921 13 ft 25 kts 99°
2026-05-03 22:04 49.18755 -123.16652 13 ft 26 kts 100°
2026-05-03 22:05 49.18721 -123.16387 13 ft 20 kts 101°
2026-05-03 22:05 49.18655 -123.16195 14 ft 20 kts 116°
2026-05-03 22:05 49.18607 -123.16051 14 ft 8 kts 144°
2026-05-03 22:05 49.18566 -123.16041 14 ft 6 kts 177°
2026-05-03 22:06 49.18521 -123.16051 16 ft 7 kts 194°
2026-05-03 22:06 49.18485 -123.16104 15 ft 9 kts 248°
2026-05-03 22:06 49.18496 -123.16257 14 ft 33 kts 280°
2026-05-03 22:06 49.18578 -123.16984 12 ft 104 kts 279°
2026-05-03 22:07 49.18739 -123.18393 32 ft 163 kts 280°
2026-05-03 22:07 49.18937 -123.20209 649 ft 181 kts 279°
2026-05-03 22:07 49.19114 -123.22165 1616 ft 188 kts 275°
2026-05-03 22:07 49.19242 -123.24223 2345 ft 205 kts 275°
2026-05-03 22:08 49.19367 -123.26528 2861 ft 231 kts 275°
2026-05-03 22:08 49.19552 -123.29092 3419 ft 253 kts 278°
2026-05-03 22:08 49.19782 -123.31849 4042 ft 269 kts 270°
2026-05-03 22:08 49.19174 -123.34571 4756 ft 282 kts 231°
2026-05-03 22:09 49.17563 -123.36219 5658 ft 283 kts 193°
2026-05-03 22:09 49.15646 -123.36392 6868 ft 274 kts 181°
2026-05-03 22:09 49.13725 -123.36436 7791 ft 280 kts 171°
2026-05-03 22:10 49.10915 -123.34090 9250 ft 286 kts 128°
2026-05-03 22:10 49.10017 -123.31411 10167 ft 287 kts 104°
2026-05-03 22:10 49.09621 -123.28336 10645 ft 306 kts 97°
2026-05-03 22:10 49.09332 -123.24998 11033 ft 327 kts 95°
2026-05-03 22:11 49.09048 -123.21504 11702 ft 337 kts 97°
2026-05-03 22:11 49.08655 -123.17944 12474 ft 343 kts 93°
2026-05-03 22:11 49.08627 -123.14291 13315 ft 347 kts 85°
2026-05-03 22:11 49.08818 -123.10604 14102 ft 351 kts 83°
2026-05-03 22:12 49.09091 -123.06880 14854 ft 355 kts 82°
2026-05-03 22:12 49.09371 -123.03124 15520 ft 358 kts 82°
2026-05-03 22:12 49.09625 -122.99338 15889 ft 360 kts 83°
2026-05-03 22:12 49.09845 -122.95513 16337 ft 365 kts 83°
2026-05-03 22:13 49.10041 -122.91637 17123 ft 368 kts 84°
2026-05-03 22:13 49.10220 -122.87727 17912 ft 371 kts 84°
2026-05-03 22:13 49.10389 -122.83777 18615 ft 375 kts 84°
2026-05-03 22:13 49.10556 -122.79789 19283 ft 378 kts 84°
2026-05-03 22:14 49.10720 -122.75824 19942 ft 381 kts 84°
2026-05-03 22:14 49.10887 -122.71781 20597 ft 384 kts 84°
2026-05-03 22:14 49.11056 -122.67703 21252 ft 386 kts 84°
2026-05-03 22:14 49.11226 -122.63594 21897 ft 389 kts 84°
2026-05-03 22:15 49.11396 -122.59454 22522 ft 393 kts 84°
2026-05-03 22:15 49.11568 -122.55275 23087 ft 397 kts 84°
2026-05-03 22:15 49.11739 -122.51055 23668 ft 400 kts 84°
2026-05-03 22:15 49.11910 -122.46805 24173 ft 402 kts 84°
2026-05-03 22:16 49.12081 -122.42527 24671 ft 405 kts 84°
2026-05-03 22:16 49.12252 -122.38223 25176 ft 407 kts 84°
2026-05-03 22:16 49.12423 -122.33893 25675 ft 410 kts 84°
2026-05-03 22:16 49.12592 -122.29538 26164 ft 412 kts 84°
2026-05-03 22:17 49.12759 -122.25155 26639 ft 415 kts 84°
2026-05-03 22:17 49.12924 -122.20746 27116 ft 417 kts 84°
2026-05-03 22:17 49.13090 -122.16317 27613 ft 420 kts 84°
2026-05-03 22:17 49.13256 -122.11854 28081 ft 422 kts 84°
2026-05-03 22:18 49.13422 -122.07364 28546 ft 425 kts 84°
2026-05-03 22:18 49.13588 -122.02848 29019 ft 427 kts 84°
2026-05-03 22:18 49.13752 -121.98303 29489 ft 430 kts 84°
2026-05-03 22:18 49.13916 -121.93739 29952 ft 432 kts 84°
2026-05-03 22:19 49.14078 -121.89145 30345 ft 434 kts 83°
2026-05-03 22:19 49.14239 -121.84533 30766 ft 435 kts 83°
2026-05-03 22:19 49.14465 -121.79925 31197 ft 434 kts 79°
2026-05-03 22:19 49.15037 -121.75417 31649 ft 431 kts 71°
2026-05-03 22:20 49.15923 -121.71048 32018 ft 431 kts 68°
2026-05-03 22:20 49.16915 -121.66753 32601 ft 426 kts 66°
2026-05-03 22:20 49.17949 -121.62547 33300 ft 420 kts 65°
2026-05-03 22:20 49.19000 -121.58402 33925 ft 416 kts 64°
2026-05-03 22:21 49.20054 -121.54285 34364 ft 415 kts 65°
2026-05-03 22:21 49.21099 -121.50178 34881 ft 413 kts 64°
2026-05-03 22:21 49.22131 -121.46086 35321 ft 411 kts 64°
2026-05-03 22:21 49.23150 -121.42007 35815 ft 410 kts 64°
2026-05-03 22:22 49.24161 -121.37935 36192 ft 409 kts 64°
2026-05-03 22:22 49.25171 -121.33858 36550 ft 409 kts 64°
2026-05-03 22:22 49.26175 -121.29784 36920 ft 409 kts 64°
2026-05-03 22:22 49.27175 -121.25718 37349 ft 407 kts 64°
2026-05-03 22:23 49.28172 -121.21658 37672 ft 409 kts 64°
2026-05-03 22:23 49.29158 -121.17632 38042 ft 409 kts 64°
2026-05-03 22:23 49.30167 -121.13500 38452 ft 408 kts 64°
2026-05-03 22:23 49.31160 -121.09432 38774 ft 407 kts 64°
2026-05-03 22:24 49.32139 -121.05424 39043 ft 407 kts 64°
2026-05-03 22:24 49.33131 -121.01356 39232 ft 409 kts 64°
2026-05-03 22:24 49.34126 -120.97267 39437 ft 410 kts 64°
2026-05-03 22:24 49.35121 -120.93168 39640 ft 410 kts 64°
2026-05-03 22:25 49.36116 -120.89062 39828 ft 411 kts 64°
2026-05-03 22:25 49.37112 -120.84944 40047 ft 412 kts 64°
2026-05-03 22:25 49.38112 -120.80801 40152 ft 416 kts 64°
2026-05-03 22:25 49.39116 -120.76635 40326 ft 417 kts 64°
2026-05-03 22:26 49.40119 -120.72459 40529 ft 417 kts 64°
2026-05-03 22:26 49.41122 -120.68273 40728 ft 418 kts 64°
2026-05-03 22:26 49.42125 -120.64082 40926 ft 418 kts 64°
2026-05-03 22:27 49.44150 -120.55614 40985 ft 427 kts 64°
2026-05-03 22:27 49.46219 -120.46931 40984 ft 438 kts 64°
2026-05-03 22:28 49.48314 -120.38073 40976 ft 442 kts 64°
2026-05-03 22:28 49.50411 -120.29162 40982 ft 443 kts 65°
2026-05-03 22:29 49.52503 -120.20239 40982 ft 443 kts 65°
2026-05-03 22:29 49.54592 -120.11304 40981 ft 444 kts 65°
2026-05-03 22:30 49.56675 -120.02359 40994 ft 444 kts 65°
2026-05-03 22:30 49.58759 -119.93379 40963 ft 446 kts 65°
2026-05-03 22:31 49.60840 -119.84366 40951 ft 446 kts 65°
2026-05-03 22:31 49.62913 -119.75346 40948 ft 446 kts 65°
2026-05-03 22:32 49.64978 -119.66320 40948 ft 446 kts 65°
2026-05-03 22:32 49.67041 -119.57276 40942 ft 448 kts 65°